Temp
-24 -25 -25 -25 -25 -25 -26 -26 -26 -26 -27 -27 -27 -27 -27 -27 -27 -28 -29 -32 -33 -34 -35 -36 -37 -37 -37 -36 -36 -35 -34 -34 -33 -33 -33 -32 -32 -31 -31 -31 -30 -30 -30 -30 -29 -28 -27 -26 -25 -24 -23 -21 -20 -20 -20 -19 -18 -18 -18 -16 -15 -14 -13 -13 -13 -14 -13 -13 -13 -12 -11 -12 -12 -12
-25 -25 -25 -25 -25 -26 -26 -26 -26 -27 -27 -27 -27 -28 -28 -28 -28 -29 -29 -31 -33 -34 -35 -36 -36 -36 -37 -36 -36 -35 -35 -34 -33 -33 -33 -33 -32 -32 -31 -31 -30 -30 -30 -30 -29 -28 -27 -26 -25 -24 -23 -21 -20 -20 -19 -19 -18 -18 -18 -17 -16 -14 -14 -13 -13 -13 -14 -14 -13 -13 -12 -12 -12 -12
-25 -25 -25 -25 -25 -26 -26 -26 -26 -27 -27 -27 -28 -28 -28 -29 -29 -30 -30 -31 -33 -35 -35 -36 -36 -36 -36 -36 -36 -36 -35 -35 -34 -33 -33 -33 -32 -32 -31 -31 -31 -30 -30 -30 -29 -29 -28 -27 -25 -24 -23 -22 -21 -20 -19 -19 -18 -18 -18 -18 -17 -15 -14 -13 -13 -13 -14 -14 -14 -13 -12 -12 -12 -12
-25 -26 -26 -26 -26 -26 -26 -27 -27 -27 -27 -28 -28 -28 -29 -29 -29 -30 -31 -31 -33 -35 -36 -36 -36 -36 -36 -36 -36 -35 -35 -35 -34 -33 -33 -33 -32 -32 -31 -31 -31 -30 -30 -30 -29 -29 -28 -27 -26 -25 -24 -22 -21 -20 -19 -19 -18 -18 -18 -18 -17 -16 -16 -14 -13 -13 -14 -14 -14 -13 -13 -13 -13 -12
-26 -26 -26 -26 -26 -27 -27 -27 -27 -27 -28 -28 -29 -29 -29 -30 -30 -31 -31 -32 -33 -35 -36 -37 -37 -37 -37 -37 -36 -36 -36 -35 -35 -34 -33 -33 -33 -32 -31 -31 -31 -30 -30 -30 -29 -29 -28 -27 -26 -25 -24 -23 -21 -20 -19 -19 -18 -18 -18 -18 -18 -17 -17 -16 -14 -13 -14 -14 -14 -13 -13 -13 -13 -13
-26 -26 -26 -26 -27 -27 -27 -27 -27 -28 -28 -29 -29 -29 -29 -30 -31 -31 -32 -33 -34 -35 -36 -37 -37 -37 -37 -37 -37 -37 -36 -36 -35 -34 -33 -33 -33 -32 -32 -31 -31 -30 -30 -30 -29 -29 -29 -28 -27 -25 -24 -23 -22 -20 -20 -19 -18 -18 -18 -18 -18 -18 -17 -17 -15 -14 -14 -15 -14 -14 -13 -13 -13 -13
-26 -26 -26 -27 -27 -27 -27 -27 -27 -28 -29 -29 -29 -29 -30 -30 -31 -32 -32 -33 -34 -35 -36 -37 -37 -37 -37 -37 -37 -37 -37 -36 -36 -35 -34 -33 -32 -32 -32 -31 -31 -30 -30 -30 -30 -29 -29 -28 -27 -26 -25 -23 -22 -21 -20 -19 -18 -18 -18 -18 -18 -18 -18 -17 -16 -14 -14 -14 -14 -14 -14 -13 -13 -13
-27 -27 -27 -27 -27 -27 -27 -27 -28 -28 -29 -29 -29 -29 -30 -30 -31 -32 -33 -34 -35 -36 -36 -36 -36 -36 -36 -36 -36 -36 -36 -36 -36 -35 -34 -33 -32 -32 -32 -31 -31 -31 -30 -30 -30 -29 -29 -28 -27 -26 -25 -24 -23 -21 -20 -19 -19 -18 -18 -18 -18 -18 -18 -17 -16 -15 -15 -15 -14 -14 -14 -13 -13 -13
-27 -27 -27 -27 -27 -27 -28 -28 -28 -28 -29 -29 -29 -29 -30 -31 -32 -33 -33 -34 -35 -36 -36 -36 -36 -36 -36 -36 -36 -36 -36 -36 -36 -35 -35 -33 -33 -32 -32 -31 -31 -31 -30 -30 -30 -29 -29 -29 -28 -27 -25 -24 -23 -22 -20 -19 -19 -19 -19 -19 -18 -18 -18 -17 -17 -16 -15 -15 -15 -15 -14 -14 -13 -13
-27 -28 -27 -27 -28 -28 -28 -28 -28 -28 -29 -29 -30 -30 -30 -31 -32 -33 -34 -35 -35 -36 -36 -36 -36 -36 -36 -35 -36 -36 -36 -36 -36 -36 -35 -34 -33 -32 -32 -31 -31 -31 -30 -30 -30 -29 -29 -29 -28 -27 -26 -25 -23 -22 -21 -19 -19 -19 -19 -19 -19 -18 -18 -17 -17 -16 -15 -15 -15 -15 -14 -14 -14 -13
-28 -28 -28 -28 -28 -28 -28 -28 -28 -29 -29 -29 -30 -30 -30 -31 -32 -33 -34 -35 -36 -36 -36 -36 -36 -35 -35 -35 -35 -35 -36 -36 -36 -36 -36 -35 -34 -33 -32 -32 -31 -31 -30 -30 -30 -29 -29 -29 -28 -27 -26 -25 -24 -22 -21 -20 -19 -19 -19 -19 -19 -19 -18 -17 -17 -17 -16 -15 -15 -15 -15 -14 -14 -14
-28 -28 -28 -28 -28 -28 -28 -28 -28 -29 -29 -29 -30 -30 -30 -31 -32 -33 -34 -35 -36 -36 -36 -36 -36 -35 -35 -35 -35 -35 -35 -35 -36 -36 -36 -35 -34 -33 -32 -32 -31 -31 -30 -30 -30 -29 -29 -29 -28 -28 -27 -25 -24 -23 -22 -20 -19 -20 -19 -19 -19 -19 -18 -17 -17 -16 -16 -15 -15 -15 -15 -15 -14 -14
-28 -28 -28 -28 -28 -28 -28 -28 -29 -29 -29 -29 -30 -30 -30 -31 -32 -33 -34 -35 -36 -36 -36 -36 -35 -35 -35 -35 -35 -35 -35 -35 -35 -35 -36 -36 -35 -34 -33 -32 -31 -31 -30 -30 -30 -29 -29 -29 -28 -28 -27 -26 -24 -23 -22 -20 -20 -20 -20 -19 -19 -19 -18 -18 -17 -17 -16 -16 -15 -15 -15 -15 -15 -15
-28 -28 -28 -28 -28 -28 -28 -29 -29 -29 -29 -29 -30 -30 -30 -31 -32 -33 -34 -35 -35 -36 -36 -36 -35 -35 -36 -36 -35 -35 -35 -35 -34 -35 -35 -36 -36 -35 -33 -32 -32 -31 -30 -30 -30 -29 -29 -29 -28 -28 -27 -26 -25 -24 -22 -21 -20 -20 -21 -20 -19 -19 -18 -18 -17 -17 -17 -17 -16 -15 -15 -15 -15 -15
-28 -28 -28 -28 -28 -28 -29 -29 -29 -29 -29 -29 -30 -30 -31 -31 -32 -33 -34 -35 -35 -36 -36 -36 -36 -35 -36 -36 -36 -36 -35 -35 -35 -34 -34 -35 -35 -35 -34 -33 -32 -31 -30 -30 -30 -29 -29 -29 -28 -28 -27 -26 -25 -24 -23 -22 -21 -21 -21 -20 -20 -19 -18 -18 -18 -17 -17 -17 -17 -16 -16 -15 -15 -15
-28 -28 -28 -28 -28 -28 -29 -29 -30 -30 -30 -30 -30 -30 -31 -31 -32 -33 -34 -34 -35 -36 -36 -36 -36 -36 -36 -36 -36 -35 -35 -35 -35 -35 -34 -34 -35 -35 -35 -34 -33 -32 -31 -30 -30 -29 -29 -29 -28 -28 -28 -27 -26 -24 -23 -22 -21 -21 -21 -21 -20 -19 -19 -19 -18 -17 -17 -17 -17 -17 -16 -16 -15 -15
-28 -28 -28 -28 -28 -29 -29 -29 -30 -30 -30 -30 -30 -30 -31 -31 -32 -33 -33 -34 -35 -35 -35 -35 -36 -36 -36 -36 -35 -35 -35 -35 -35 -35 -35 -35 -34 -34 -35 -35 -34 -32 -31 -30 -30 -29 -29 -29 -28 -28 -28 -27 -26 -25 -24 -23 -21 -21 -22 -21 -20 -20 -19 -19 -19 -18 -17 -17 -18 -18 -17 -16 -16 -16
-28 -28 -28 -29 -29 -29 -29 -30 -30 -30 -30 -30 -30 -31 -31 -31 -32 -33 -33 -34 -35 -35 -35 -35 -35 -35 -36 -35 -35 -35 -35 -34 -34 -34 -35 -35 -34 -34 -34 -34 -34 -33 -31 -30 -30 -29 -29 -29 -28 -28 -28 -28 -27 -25 -24 -23 -22 -22 -22 -21 -21 -20 -19 -19 -19 -18 -17 -17 -18 -18 -17 -17 -16 -16
-28 -28 -28 -29 -29 -29 -29 -30 -30 -30 -30 -30 -31 -31 -31 -31 -32 -33 -33 -34 -35 -35 -35 -35 -35 -35 -35 -35 -35 -35 -34 -34 -34 -34 -34 -34 -34 -34 -33 -33 -33 -33 -31 -30 -30 -29 -29 -29 -28 -28 -28 -28 -27 -26 -25 -24 -22 -22 -22 -22 -21 -20 -20 -19 -19 -19 -17 -17 -18 -18 -18 -17 -17 -16
-28 -28 -29 -29 -29 -29 -30 -30 -30 -30 -30 -30 -31 -31 -31 -32 -32 -33 -33 -34 -35 -35 -35 -35 -35 -35 -35 -35 -34 -34 -34 -34 -34 -34 -34 -34 -34 -34 -33 -32 -32 -32 -31 -30 -29 -29 -29 -28 -28 -28 -28 -28 -27 -26 -25 -24 -23 -22 -22 -22 -22 -21 -20 -20 -19 -19 -18 -17 -18 -18 -18 -17 -17 -17
-28 -28 -29 -29 -29 -29 -30 -30 -30 -30 -30 -31 -31 -31 -31 -32 -32 -33 -33 -34 -35 -35 -35 -35 -35 -35 -35 -35 -34 -34 -34 -34 -34 -34 -34 -34 -34 -33 -33 -32 -32 -31 -31 -30 -29 -29 -29 -28 -28 -28 -28 -28 -28 -27 -26 -25 -24 -23 -22 -22 -22 -21 -20 -20 -20 -19 -18 -17 -18 -19 -18 -17 -16 -17
-28 -29 -29 -29 -29 -30 -30 -30 -30 -30 -30 -31 -31 -31 -31 -32 -32 -33 -33 -34 -35 -35 -35 -35 -35 -35 -35 -35 -34 -34 -34 -34 -34 -34 -34 -34 -34 -33 -33 -32 -32 -31 -30 -30 -29 -29 -29 -28 -28 -28 -28 -28 -28 -27 -26 -25 -24 -23 -23 -22 -22 -22 -21 -20 -20 -19 -19 -18 -18 -18 -18 -17 -17 -16
-29 -29 -29 -29 -29 -30 -30 -30 -30 -30 -30 -31 -31 -31 -32 -32 -32 -33 -33 -34 -35 -35 -35 -35 -35 -35 -35 -35 -34 -35 -35 -34 -34 -35 -35 -35 -34 -34 -33 -33 -32 -31 -31 -30 -30 -30 -29 -28 -28 -28 -28 -28 -28 -27 -27 -26 -25 -24 -23 -23 -23 -22 -21 -21 -20 -20 -19 -18 -18 -18 -19 -18 -17 -17
-29 -29 -29 -29 -30 -30 -30 -30 -30 -30 -30 -31 -31 -31 -31 -32 -32 -33 -33 -34 -35 -35 -35 -35 -36 -35 -35 -35 -34 -35 -35 -34 -34 -35 -35 -35 -35 -35 -34 -33 -33 -32 -31 -31 -30 -30 -29 -28 -28 -28 -28 -28 -28 -28 -27 -27 -26 -25 -24 -23 -23 -23 -22 -21 -20 -20 -20 -18 -18 -19 -19 -19 -18 -17
-29 -29 -29 -29 -30 -30 -30 -30 -30 -30 -30 -30 -31 -31 -31 -32 -32 -32 -33 -34 -35 -35 -35 -35 -35 -35 -35 -35 -34 -35 -35 -34 -34 -35 -35 -35 -35 -35 -35 -34 -33 -33 -32 -31 -30 -30 -29 -29 -29 -28 -28 -28 -28 -28 -28 -27 -26 -26 -25 -24 -23 -23 -23 -21 -20 -20 -20 -18 -18 -19 -19 -19 -19 -18
-29 -29 -29 -30 -30 -30 -30 -30 -30 -30 -30 -30 -31 -31 -32 -32 -32 -32 -33 -34 -34 -35 -35 -35 -35 -35 -35 -35 -35 -35 -35 -34 -34 -35 -35 -35 -35 -35 -35 -34 -34 -33 -33 -32 -31 -30 -30 -29 -29 -29 -28 -28 -28 -28 -28 -27 -27 -26 -26 -25 -24 -24 -23 -22 -21 -21 -20 -19 -18 -19 -19 -19 -19 -18
-30 -30 -30 -30 -30 -30 -30 -30 -30 -30 -30 -30 -31 -31 -32 -32 -32 -32 -33 -33 -34 -35 -35 -35 -35 -35 -35 -35 -35 -35 -35 -34 -34 -35 -35 -35 -35 -35 -35 -35 -34 -34 -33 -33 -32 -31 -30 -30 -30 -29 -29 -29 -28 -28 -28 -28 -27 -27 -26 -26 -25 -24 -24 -23 -22 -21 -20 -19 -18 -19 -19 -19 -19 -18
-30 -30 -30 -30 -30 -31 -30 -30 -30 -30 -30 -31 -31 -32 -32 -32 -32 -32 -33 -33 -34 -35 -35 -35 -35 -35 -35 -35 -35 -35 -34 -34 -34 -34 -35 -35 -35 -35 -35 -35 -35 -34 -34 -33 -32 -32 -31 -31 -30 -30 -30 -29 -29 -28 -28 -28 -28 -27 -27 -26 -25 -24 -24 -23 -22 -21 -21 -20 -19 -19 -19 -19 -19 -18
-30 -30 -30 -30 -31 -31 -30 -31 -30 -30 -31 -31 -32 -32 -32 -32 -32 -32 -32 -33 -34 -34 -35 -35 -35 -35 -35 -35 -35 -35 -34 -34 -34 -34 -35 -35 -35 -35 -35 -35 -35 -35 -34 -34 -33 -33 -32 -31 -31 -30 -30 -30 -29 -29 -28 -28 -28 -27 -27 -26 -26 -25 -24 -24 -23 -22 -21 -20 -19 -19 -19 -19 -19 -19
-30 -30 -30 -30 -31 -31 -31 -31 -30 -30 -31 -31 -32 -32 -32 -32 -32 -32 -32 -33 -33 -34 -34 -35 -35 -35 -35 -35 -35 -35 -34 -34 -34 -34 -34 -34 -34 -35 -35 -34 -34 -35 -35 -34 -34 -34 -33 -32 -31 -31 -30 -30 -30 -29 -29 -28 -28 -28 -27 -27 -27 -26 -25 -24 -24 -23 -22 -21 -20 -19 -19 -20 -20 -19
-30 -30 -30 -31 -31 -31 -31 -31 -31 -31 -31 -32 -32 -32 -32 -32 -32 -32 -32 -33 -33 -34 -34 -34 -34 -35 -35 -35 -35 -35 -34 -34 -34 -34 -34 -34 -34 -34 -34 -34 -34 -34 -34 -34 -34 -34 -34 -33 -32 -31 -31 -30 -30 -29 -29 -29 -28 -28 -28 -27 -27 -27 -26 -25 -25 -24 -23 -22 -21 -20 -19 -20 -20 -19
-30 -30 -31 -31 -31 -31 -31 -31 -31 -31 -31 -32 -32 -32 -32 -32 -32 -32 -32 -33 -33 -33 -34 -34 -34 -34 -35 -35 -35 -35 -35 -34 -34 -34 -34 -34 -34 -34 -34 -34 -34 -34 -34 -34 -34 -34 -34 -33 -32 -32 -31 -31 -30 -30 -30 -29 -29 -28 -28 -28 -27 -27 -27 -26 -25 -25 -24 -23 -22 -21 -20 -20 -20 -19
-30 -30 -31 -31 -31 -31 -31 -31 -31 -31 -31 -32 -32 -32 -32 -32 -32 -32 -32 -33 -33 -33 -34 -34 -34 -34 -34 -35 -35 -35 -35 -34 -34 -34 -34 -34 -34 -34 -34 -34 -34 -34 -34 -33 -33 -33 -33 -33 -33 -32 -32 -31 -31 -30 -30 -30 -29 -28 -28 -28 -28 -27 -27 -26 -26 -25 -25 -24 -23 -22 -21 -20 -20 -20
-30 -30 -31 -31 -31 -31 -31 -31 -31 -31 -31 -32 -32 -32 -32 -32 -33 -33 -33 -33 -33 -33 -34 -34 -34 -34 -34 -34 -34 -35 -35 -34 -34 -34 -34 -34 -34 -34 -34 -34 -34 -34 -33 -33 -33 -33 -33 -33 -33 -32 -32 -31 -31 -31 -30 -30 -29 -29 -28 -28 -28 -28 -27 -27 -26 -26 -25 -24 -24 -23 -22 -21 -20 -20
-30 -31 -31 -31 -31 -31 -31 -31 -31 -31 -31 -32 -32 -32 -32 -33 -33 -33 -33 -33 -33 -33 -33 -34 -34 -34 -34 -34 -34 -34 -34 -34 -34 -34 -34 -34 -34 -34 -34 -34 -34 -34 -33 -33 -33 -33 -33 -33 -32 -32 -32 -32 -32 -31 -31 -30 -30 -29 -29 -28 -28 -28 -28 -27 -27 -27 -26 -25 -25 -24 -23 -22 -21 -20
-30 -31 -31 -31 -31 -31 -31 -31 -31 -31 -31 -32 -32 -32 -32 -33 -33 -33 -33 -33 -33 -33 -33 -33 -34 -34 -34 -34 -34 -34 -34 -34 -34 -34 -34 -34 -34 -34 -34 -34 -34 -34 -33 -33 -33 -33 -33 -33 -32 -32 -32 -32 -32 -31 -31 -30 -30 -30 -29 -29 -28 -28 -28 -28 -27 -27 -27 -26 -26 -25 -24 -23 -22 -21
-30 -31 -31 -31 -31 -31 -31 -31 -31 -31 -32 -32 -32 -32 -32 -33 -33 -33 -33 -33 -33 -33 -33 -33 -34 -34 -34 -34 -34 -34 -34 -34 -34 -34 -34 -34 -34 -34 -34 -33 -33 -33 -33 -33 -33 -33 -33 -33 -32 -32 -32 -32 -32 -31 -31 -30 -30 -30 -29 -29 -29 -28 -28 -28 -28 -27 -27 -27 -26 -26 -25 -24 -23 -22
-30 -31 -31 -31 -31 -31 -31 -32 -32 -32 -32 -32 -32 -32 -32 -33 -33 -33 -33 -33 -33 -33 -33 -33 -33 -34 -34 -34 -34 -34 -34 -34 -34 -34 -34 -34 -34 -34 -34 -33 -33 -33 -33 -33 -33 -33 -33 -32 -32 -32 -32 -31 -31 -31 -31 -30 -30 -30 -30 -29 -29 -29 -28 -28 -28 -28 -27 -27 -27 -26 -26 -25 -25 -24
-30 -31 -31 -31 -31 -31 -32 -32 -32 -32 -32 -32 -32 -32 -32 -33 -33 -33 -33 -33 -33 -33 -33 -33 -33 -34 -34 -34 -34 -34 -34 -34 -34 -34 -34 -34 -34 -34 -34 -34 -33 -33 -33 -33 -33 -33 -33 -32 -32 -32 -31 -31 -31 -31 -31 -30 -30 -30 -30 -29 -29 -29 -29 -28 -28 -28 -28 -27 -27 -27 -27 -26 -26 -25
-30 -31 -31 -31 -31 -31 -32 -32 -32 -32 -32 -32 -32 -32 -32 -33 -33 -33 -33 -33 -33 -33 -33 -33 -33 -33 -34 -34 -34 -34 -34 -34 -34 -34 -34 -34 -34 -34 -34 -34 -34 -33 -33 -33 -33 -33 -33 -33 -32 -32 -32 -31 -31 -31 -30 -30 -30 -30 -30 -29 -29 -29 -29 -28 -28 -28 -28 -28 -27 -27 -27 -27 -26 -26
-30 -31 -31 -31 -31 -31 -32 -32 -32 -32 -32 -32 -32 -32 -33 -33 -33 -33 -33 -33 -34 -34 -34 -33 -33 -33 -34 -34 -34 -34 -34 -34 -34 -34 -34 -34 -34 -34 -34 -34 -34 -33 -33 -33 -33 -33 -33 -33 -32 -32 -32 -31 -31 -31 -30 -30 -30 -30 -30 -30 -29 -29 -29 -29 -28 -28 -28 -28 -27 -27 -27 -27 -27 -26
-30 -31 -31 -31 -31 -31 -32 -32 -32 -32 -32 -32 -32 -33 -33 -33 -33 -33 -33 -34 -34 -34 -34 -34 -34 -33 -33 -34 -34 -34 -34 -34 -34 -34 -34 -34 -34 -34 -34 -34 -34 -34 -33 -33 -33 -33 -33 -33 -32 -32 -32 -31 -31 -31 -31 -30 -30 -30 -30 -30 -29 -29 -29 -29 -28 -28 -28 -28 -28 -27 -27 -27 -27 -27
-30 -31 -31 -31 -31 -31 -32 -32 -32 -32 -32 -32 -32 -33 -33 -33 -33 -33 -33 -34 -34 -34 -34 -34 -34 -34 -34 -34 -34 -34 -34 -34 -34 -33 -34 -34 -34 -34 -34 -34 -34 -33 -33 -33 -33 -33 -33 -33 -33 -32 -32 -32 -31 -31 -31 -30 -30 -30 -30 -30 -29 -29 -29 -29 -29 -28 -28 -28 -28 -28 -27 -27 -27 -27
-30 -31 -31 -31 -31 -31 -32 -32 -32 -32 -33 -33 -33 -33 -33 -33 -33 -33 -33 -33 -34 -34 -34 -34 -34 -34 -34 -34 -34 -34 -34 -34 -34 -33 -33 -33 -33 -34 -34 -34 -34 -33 -33 -33 -33 -33 -33 -33 -33 -33 -32 -32 -32 -31 -31 -30 -30 -30 -30 -30 -30 -29 -29 -29 -29 -29 -28 -28 -28 -28 -28 -27 -27 -27
-30 -31 -31 -31 -31 -31 -32 -32 -32 -32 -33 -33 -33 -33 -33 -33 -33 -33 -33 -33 -34 -34 -34 -34 -34 -34 -34 -34 -34 -34 -34 -34 -34 -34 -33 -33 -33 -33 -33 -33 -33 -33 -33 -33 -33 -33 -33 -33 -33 -33 -32 -32 -32 -32 -31 -31 -30 -30 -30 -30 -30 -30 -29 -29 -29 -29 -29 -28 -28 -28 -28 -28 -27 -27
Height
5374 5368 5362 5356 5350 5343 5336 5328 5320 5313 5306 5297 5288 5280 5271 5264 5259 5255 5250 5241 5229 5222 5217 5212 5209 5205 5200 5198 5195 5192 5191 5190 5191 5193 5195 5197 5201 5206 5212 5219 5226 5234 5242 5249 5257 5265 5274 5283 5294 5304 5316 5327 5338 5350 5361 5371 5381 5392 5402 5413 5426 5438 5449 5459 5471 5482 5493 5504 5514 5522 5531 5538 5543 5549
5368 5362 5356 5350 5344 5338 5330 5322 5315 5308 5300 5292 5282 5274 5266 5258 5250 5244 5241 5236 5226 5218 5215 5209 5204 5202 5197 5193 5191 5189 5187 5186 5187 5188 5190 5192 5195 5200 5205 5212 5220 5228 5236 5243 5250 5258 5266 5275 5286 5296 5307 5319 5329 5341 5352 5362 5373 5382 5392 5404 5417 5428 5439 5451 5463 5475 5486 5496 5505 5514 5522 5530 5537 5544
5362 5357 5351 5345 5339 5332 5324 5317 5310 5303 5294 5286 5277 5269 5261 5252 5244 5236 5232 5230 5222 5212 5209 5206 5199 5196 5193 5189 5187 5185 5183 5181 5182 5183 5185 5187 5190 5194 5199 5205 5213 5221 5229 5237 5244 5252 5259 5268 5278 5288 5299 5310 5321 5332 5343 5353 5364 5373 5383 5395 5408 5419 5430 5442 5456 5469 5479 5487 5496 5505 5513 5522 5530 5538
5357 5351 5346 5339 5333 5326 5320 5312 5305 5297 5289 5281 5272 5265 5257 5247 5239 5232 5225 5223 5219 5209 5202 5200 5196 5191 5189 5185 5182 5181 5179 5177 5177 5178 5180 5182 5184 5188 5193 5199 5206 5214 5222 5230 5238 5245 5252 5260 5270 5280 5291 5302 5312 5323 5334 5344 5355 5364 5374 5386 5399 5410 5422 5434 5448 5461 5471 5480 5488 5496 5504 5513 5522 5530
5351 5346 5340 5334 5328 5321 5314 5307 5300 5292 5284 5276 5268 5260 5253 5243 5234 5228 5221 5216 5214 5208 5199 5196 5193 5189 5186 5183 5179 5177 5176 5173 5172 5173 5174 5176 5179 5183 5187 5192 5199 5206 5215 5223 5230 5237 5244 5252 5261 5271 5281 5292 5303 5314 5325 5335 5345 5356 5366 5378 5390 5402 5414 5426 5439 5452 5462 5472 5480 5487 5495 5505 5514 5522
5346 5341 5335 5329 5323 5317 5310 5302 5295 5288 5280 5272 5264 5256 5248 5240 5230 5223 5218 5212 5209 5205 5199 5194 5192 5188 5184 5181 5178 5175 5173 5170 5168 5168 5169 5170 5173 5177 5181 5186 5192 5199 5206 5214 5222 5229 5236 5243 5252 5262 5272 5283 5294 5305 5316 5326 5335 5346 5357 5369 5382 5395 5407 5419 5432 5444 5455 5465 5473 5480 5487 5497 5506 5515
5340 5335 5330 5324 5318 5312 5305 5298 5290 5283 5276 5267 5260 5252 5243 5235 5228 5220 5214 5209 5204 5202 5199 5194 5190 5187 5184 5180 5176 5173 5170 5167 5165 5164 5164 5165 5168 5171 5175 5180 5185 5192 5199 5207 5214 5221 5229 5236 5244 5253 5264 5275 5286 5296 5307 5317 5327 5338 5350 5361 5373 5387 5400 5413 5424 5437 5449 5458 5466 5474 5481 5490 5499 5507
5335 5330 5325 5319 5314 5308 5301 5294 5286 5279 5272 5263 5255 5248 5240 5231 5225 5217 5210 5205 5201 5199 5197 5193 5189 5186 5183 5179 5174 5171 5168 5165 5162 5160 5160 5160 5162 5165 5169 5174 5179 5185 5192 5199 5207 5214 5221 5229 5236 5245 5255 5267 5278 5289 5299 5310 5319 5330 5343 5354 5366 5379 5392 5404 5416 5429 5440 5450 5459 5468 5476 5483 5492 5501
5330 5325 5320 5315 5309 5304 5297 5290 5283 5275 5267 5260 5251 5244 5236 5228 5221 5214 5207 5202 5198 5196 5194 5192 5188 5184 5180 5177 5173 5169 5166 5163 5159 5157 5156 5156 5158 5160 5163 5168 5172 5178 5184 5192 5199 5207 5214 5222 5229 5237 5247 5258 5270 5280 5291 5302 5311 5321 5334 5347 5358 5370 5384 5397 5410 5422 5433 5443 5452 5461 5470 5478 5486 5495
5326 5321 5316 5311 5305 5299 5293 5286 5279 5271 5264 5256 5248 5240 5233 5225 5218 5211 5205 5200 5197 5194 5192 5190 5187 5182 5178 5174 5171 5166 5163 5161 5157 5154 5152 5152 5153 5155 5158 5162 5166 5171 5177 5184 5192 5199 5207 5215 5222 5230 5240 5251 5263 5274 5284 5294 5304 5314 5326 5339 5350 5362 5376 5390 5403 5415 5426 5435 5445 5455 5464 5472 5480 5488
5321 5316 5311 5306 5300 5294 5288 5282 5274 5267 5260 5253 5245 5237 5229 5222 5216 5209 5203 5199 5195 5193 5190 5188 5185 5181 5176 5172 5168 5164 5161 5158 5155 5153 5151 5149 5148 5149 5152 5156 5160 5164 5170 5177 5184 5192 5200 5207 5216 5223 5233 5244 5256 5268 5278 5288 5297 5308 5319 5332 5343 5355 5369 5382 5396 5409 5419 5428 5439 5449 5457 5465 5473 5481
5316 5312 5307 5301 5296 5290 5284 5278 5270 5263 5257 5250 5243 5234 5227 5220 5214 5208 5202 5197 5194 5191 5189 5186 5183 5178 5173 5168 5165 5161 5159 5157 5154 5151 5149 5147 5145 5145 5146 5149 5152 5157 5163 5169 5176 5184 5192 5200 5209 5217 5226 5237 5248 5260 5271 5280 5289 5301 5313 5325 5338 5350 5362 5375 5389 5401 5412 5422 5432 5441 5449 5457 5466 5474
5311 5307 5302 5297 5291 5286 5280 5273 5266 5259 5253 5247 5241 5233 5225 5218 5212 5206 5200 5196 5192 5190 5187 5184 5180 5176 5170 5165 5162 5159 5156 5155 5153 5151 5148 5146 5143 5142 5142 5143 5145 5149 5155 5162 5169 5177 5185 5194 5202 5211 5220 5230 5241 5253 5265 5275 5283 5293 5306 5318 5330 5344 5356 5368 5382 5394 5404 5414 5424 5433 5442 5450 5458 5466
5307 5302 5298 5293 5287 5282 5276 5269 5262 5255 5249 5242 5236 5229 5222 5216 5209 5203 5198 5194 5190 5188 5185 5182 5178 5173 5168 5162 5159 5156 5154 5152 5150 5148 5146 5144 5141 5139 5139 5139 5140 5142 5147 5153 5162 5170 5178 5187 5196 5205 5215 5225 5235 5247 5261 5271 5278 5286 5299 5310 5322 5336 5348 5359 5374 5386 5396 5407 5416 5425 5434 5442 5450 5459
5303 5298 5293 5288 5284 5279 5273 5266 5259 5251 5245 5238 5232 5225 5218 5212 5206 5200 5196 5192 5188 5185 5183 5180 5175 5170 5165 5161 5157 5154 5152 5150 5147 5145 5143 5141 5138 5136 5134 5134 5133 5136 5140 5146 5154 5163 5171 5181 5191 5201 5210 5219 5230 5242 5255 5265 5271 5279 5292 5303 5314 5328 5340 5351 5366 5379 5389 5400 5409 5417 5427 5435 5443 5453
5298 5294 5289 5284 5280 5275 5269 5263 5256 5248 5241 5234 5228 5222 5215 5208 5202 5197 5192 5189 5186 5183 5181 5178 5173 5168 5164 5160 5157 5154 5152 5150 5146 5143 5139 5136 5135 5133 5130 5129 5128 5129 5133 5140 5149 5157 5164 5174 5185 5196 5206 5214 5224 5236 5248 5259 5265 5272 5285 5298 5308 5321 5334 5345 5359 5372 5382 5393 5403 5411 5420 5429 5438 5447
5294 5290 5285 5280 5276 5271 5266 5259 5253 5246 5238 5231 5225 5219 5212 5206 5199 5194 5189 5185 5182 5180 5179 5176 5171 5166 5163 5161 5158 5154 5152 5149 5145 5141 5136 5132 5130 5128 5126 5125 5123 5122 5126 5133 5141 5150 5157 5166 5178 5191 5201 5209 5218 5230 5241 5253 5261 5267 5278 5292 5302 5314 5328 5339 5352 5365 5375 5386 5397 5406 5414 5423 5432 5441
5290 5286 5282 5277 5273 5268 5262 5256 5250 5243 5236 5229 5222 5215 5209 5202 5196 5191 5186 5182 5179 5177 5175 5173 5169 5165 5162 5161 5158 5155 5151 5148 5143 5139 5134 5128 5125 5122 5120 5119 5117 5116 5119 5125 5134 5143 5149 5157 5171 5186 5195 5202 5212 5224 5235 5247 5257 5263 5272 5286 5298 5308 5321 5333 5345 5358 5369 5379 5390 5400 5409 5418 5426 5435
5287 5283 5278 5274 5269 5264 5259 5253 5247 5241 5234 5227 5220 5212 5206 5199 5193 5188 5184 5180 5177 5175 5173 5171 5168 5164 5162 5160 5158 5154 5150 5145 5140 5134 5129 5124 5120 5116 5113 5113 5112 5111 5113 5119 5129 5139 5143 5150 5167 5182 5189 5196 5207 5218 5229 5241 5252 5260 5267 5280 5293 5304 5315 5327 5339 5351 5362 5372 5383 5395 5404 5413 5421 5429
5283 5279 5275 5270 5266 5261 5255 5250 5244 5239 5232 5225 5218 5211 5204 5197 5191 5185 5181 5178 5176 5174 5172 5170 5166 5162 5161 5159 5155 5151 5146 5142 5136 5130 5124 5119 5115 5111 5108 5107 5107 5107 5110 5116 5125 5135 5138 5146 5163 5176 5182 5191 5203 5213 5224 5236 5247 5256 5263 5273 5287 5299 5309 5321 5332 5344 5355 5366 5377 5388 5399 5408 5415 5422
5278 5275 5271 5267 5262 5257 5252 5247 5242 5236 5230 5223 5216 5209 5202 5195 5189 5183 5178 5175 5174 5173 5171 5168 5164 5161 5159 5157 5153 5148 5143 5138 5132 5126 5121 5115 5111 5107 5104 5102 5101 5103 5107 5112 5121 5130 5133 5140 5156 5169 5176 5186 5198 5208 5220 5232 5242 5252 5259 5267 5280 5293 5303 5314 5325 5337 5348 5359 5370 5381 5393 5402 5409 5415
5274 5271 5267 5263 5259 5254 5249 5244 5239 5233 5227 5221 5214 5207 5200 5193 5187 5182 5177 5173 5171 5170 5169 5166 5162 5160 5158 5155 5151 5146 5141 5136 5131 5125 5119 5114 5109 5104 5101 5098 5097 5099 5102 5108 5116 5122 5124 5133 5149 5161 5170 5183 5196 5206 5217 5228 5237 5248 5256 5263 5273 5286 5296 5307 5318 5330 5341 5352 5363 5373 5384 5395 5402 5407
5270 5267 5263 5260 5255 5251 5246 5241 5236 5231 5225 5219 5213 5207 5200 5192 5186 5181 5176 5172 5169 5168 5166 5164 5161 5159 5158 5154 5150 5146 5140 5135 5130 5124 5119 5114 5109 5103 5099 5096 5095 5096 5098 5102 5109 5113 5118 5130 5145 5155 5167 5182 5195 5204 5214 5224 5233 5243 5252 5259 5267 5279 5290 5300 5311 5323 5334 5344 5354 5364 5374 5385 5394 5401
5266 5263 5260 5256 5252 5247 5243 5238 5233 5228 5223 5217 5212 5206 5199 5192 5185 5179 5175 5172 5169 5167 5166 5164 5162 5160 5157 5154 5151 5146 5140 5135 5130 5125 5120 5115 5110 5105 5101 5097 5095 5094 5095 5098 5103 5107 5116 5129 5141 5152 5165 5179 5189 5198 5208 5218 5227 5237 5246 5254 5262 5272 5283 5293 5303 5315 5326 5336 5346 5355 5365 5375 5387 5396
5262 5259 5256 5252 5248 5244 5240 5236 5231 5226 5221 5215 5210 5204 5197 5191 5184 5179 5174 5170 5168 5166 5165 5164 5162 5159 5157 5154 5150 5146 5141 5136 5131 5126 5121 5117 5113 5108 5104 5099 5096 5096 5096 5097 5101 5108 5117 5128 5137 5149 5162 5173 5183 5193 5202 5211 5221 5231 5240 5250 5258 5265 5275 5286 5296 5307 5318 5329 5338 5347 5357 5367 5379 5391
5258 5256 5252 5249 5245 5241 5237 5233 5228 5224 5219 5213 5206 5200 5195 5190 5184 5179 5174 5169 5166 5165 5164 5163 5161 5159 5157 5153 5150 5146 5142 5137 5132 5128 5124 5120 5116 5111 5107 5103 5100 5098 5098 5099 5103 5109 5118 5126 5135 5146 5159 5169 5178 5188 5198 5206 5216 5225 5234 5244 5252 5259 5268 5280 5290 5300 5311 5322 5331 5341 5351 5361 5373 5385
5254 5252 5249 5245 5242 5238 5235 5231 5226 5221 5216 5209 5203 5198 5193 5189 5183 5178 5173 5169 5165 5163 5162 5161 5160 5159 5156 5154 5150 5147 5144 5140 5135 5131 5127 5123 5120 5116 5112 5108 5105 5103 5103 5104 5107 5111 5118 5126 5135 5145 5156 5166 5174 5183 5194 5203 5212 5220 5229 5238 5246 5254 5262 5272 5283 5293 5303 5314 5323 5333 5343 5353 5365 5376
5251 5248 5246 5242 5239 5236 5232 5228 5224 5219 5213 5207 5201 5196 5192 5188 5183 5177 5172 5168 5165 5162 5161 5160 5159 5158 5156 5154 5151 5148 5145 5142 5138 5133 5130 5127 5124 5121 5118 5114 5111 5110 5109 5109 5112 5115 5120 5127 5135 5145 5154 5163 5172 5182 5192 5201 5209 5218 5226 5234 5242 5251 5258 5266 5276 5286 5296 5306 5314 5323 5333 5344 5356 5368
5248 5245 5242 5239 5236 5233 5230 5226 5222 5216 5210 5205 5200 5196 5191 5187 5182 5177 5172 5168 5164 5161 5160 5159 5158 5157 5156 5154 5152 5149 5146 5143 5139 5135 5133 5130 5128 5126 5123 5120 5118 5116 5115 5116 5118 5121 5125 5130 5137 5145 5153 5161 5171 5181 5191 5199 5207 5215 5223 5231 5239 5247 5255 5262 5270 5280 5290 5299 5306 5315 5327 5339 5349 5359
5244 5242 5239 5236 5234 5231 5228 5224 5219 5214 5208 5204 5200 5197 5192 5187 5182 5176 5171 5167 5163 5160 5159 5158 5157 5157 5155 5154 5152 5150 5147 5144 5141 5138 5136 5133 5131 5129 5128 5126 5124 5122 5122 5123 5125 5128 5131 5135 5140 5147 5154 5161 5170 5180 5188 5197 5205 5212 5219 5226 5234 5242 5249 5257 5264 5272 5282 5292 5300 5307 5318 5329 5338 5348
5241 5239 5236 5234 5232 5229 5226 5222 5217 5212 5207 5204 5200 5196 5192 5187 5181 5176 5171 5167 5163 5160 5158 5157 5156 5156 5155 5154 5152 5150 5148 5145 5143 5140 5138 5136 5134 5133 5132 5131 5129 5129 5129 5130 5131 5133 5136 5140 5144 5150 5155 5162 5170 5178 5186 5193 5201 5208 5215 5222 5228 5236 5244 5252 5259 5266 5274 5283 5292 5298 5306 5316 5327 5337
5238 5236 5234 5232 5229 5227 5224 5220 5216 5211 5207 5204 5199 5195 5190 5186 5182 5177 5172 5167 5163 5160 5157 5156 5156 5155 5155 5154 5152 5151 5149 5147 5145 5142 5141 5139 5137 5136 5135 5134 5134 5134 5135 5135 5137 5139 5142 5146 5150 5154 5158 5164 5170 5177 5184 5190 5196 5203 5210 5217 5224 5231 5238 5245 5252 5259 5265 5273 5282 5290 5297 5306 5318 5328
5235 5233 5231 5229 5227 5225 5222 5218 5214 5210 5206 5203 5198 5193 5189 5185 5181 5177 5172 5167 5163 5160 5157 5155 5155 5154 5154 5153 5152 5151 5150 5148 5146 5144 5143 5141 5140 5139 5138 5138 5138 5139 5140 5141 5142 5145 5148 5151 5155 5157 5161 5166 5171 5177 5182 5187 5194 5201 5208 5215 5222 5229 5236 5242 5248 5254 5260 5267 5276 5285 5293 5300 5309 5320
5232 5230 5229 5227 5225 5223 5220 5216 5213 5209 5205 5201 5197 5192 5188 5184 5180 5176 5172 5168 5164 5160 5157 5155 5154 5153 5153 5153 5153 5152 5151 5149 5148 5146 5145 5144 5143 5141 5141 5141 5141 5142 5144 5146 5147 5149 5152 5155 5158 5160 5164 5169 5173 5176 5181 5186 5193 5200 5207 5213 5220 5227 5234 5240 5245 5251 5258 5265 5272 5280 5288 5295 5302 5311
5229 5228 5226 5225 5223 5221 5218 5214 5211 5207 5203 5199 5195 5191 5187 5184 5180 5176 5172 5169 5165 5161 5158 5155 5153 5152 5152 5153 5152 5152 5151 5150 5149 5148 5147 5146 5145 5144 5144 5144 5145 5145 5147 5149 5151 5153 5155 5157 5159 5163 5167 5170 5173 5176 5180 5186 5193 5199 5205 5212 5218 5224 5230 5236 5242 5248 5254 5261 5266 5273 5282 5290 5296 5303
5227 5225 5224 5222 5221 5218 5216 5212 5209 5206 5202 5198 5194 5190 5187 5183 5180 5176 5173 5169 5165 5162 5158 5156 5153 5152 5151 5152 5152 5152 5151 5151 5150 5150 5149 5147 5147 5147 5146 5147 5147 5148 5149 5150 5152 5154 5156 5158 5161 5164 5167 5170 5172 5176 5181 5187 5192 5198 5204 5210 5216 5222 5227 5233 5238 5244 5249 5255 5260 5267 5275 5283 5290 5296
5224 5223 5222 5220 5218 5216 5213 5210 5207 5204 5200 5197 5193 5190 5186 5183 5180 5177 5173 5170 5167 5163 5159 5156 5154 5152 5150 5150 5151 5151 5151 5151 5151 5150 5150 5149 5149 5148 5148 5148 5149 5150 5151 5152 5154 5156 5158 5160 5162 5165 5167 5170 5173 5177 5181 5186 5192 5197 5203 5209 5214 5219 5224 5229 5234 5240 5244 5250 5256 5263 5269 5276 5283 5289
5222 5221 5219 5218 5216 5214 5211 5208 5206 5203 5199 5196 5193 5189 5186 5183 5180 5177 5174 5171 5167 5164 5160 5157 5154 5152 5150 5149 5149 5150 5151 5151 5151 5151 5151 5151 5150 5150 5150 5150 5151 5151 5152 5153 5155 5157 5158 5160 5162 5165 5167 5170 5173 5177 5182 5186 5191 5196 5201 5206 5211 5216 5221 5226 5231 5235 5241 5246 5253 5259 5264 5269 5274 5280
5219 5218 5217 5216 5214 5212 5209 5207 5204 5201 5198 5195 5192 5189 5186 5183 5180 5177 5174 5171 5168 5165 5161 5158 5155 5152 5150 5149 5148 5149 5150 5150 5151 5151 5151 5151 5151 5151 5151 5151 5152 5152 5153 5154 5156 5157 5159 5161 5162 5164 5167 5170 5173 5177 5181 5185 5189 5194 5199 5204 5208 5213 5218 5222 5227 5232 5238 5243 5249 5254 5259 5264 5268 5273
5217 5216 5215 5213 5212 5210 5207 5205 5203 5200 5197 5194 5192 5189 5186 5183 5180 5177 5174 5171 5168 5165 5162 5159 5156 5153 5151 5149 5148 5147 5148 5149 5150 5151 5151 5152 5152 5152 5152 5152 5153 5153 5154 5155 5156 5158 5159 5161 5162 5164 5167 5169 5172 5176 5180 5184 5187 5191 5196 5200 5205 5210 5214 5219 5224 5229 5234 5239 5244 5249 5254 5258 5262 5267
5214 5213 5212 5211 5210 5208 5206 5204 5201 5199 5196 5193 5191 5188 5186 5183 5180 5177 5175 5172 5169 5166 5163 5160 5157 5154 5152 5149 5148 5147 5147 5148 5149 5150 5151 5151 5152 5152 5153 5153 5153 5154 5154 5155 5156 5157 5159 5160 5162 5164 5166 5168 5171 5175 5178 5181 5185 5189 5193 5197 5202 5206 5210 5215 5220 5225 5230 5235 5240 5245 5249 5253 5257 5261
5212 5211 5210 5209 5208 5206 5204 5202 5200 5198 5195 5192 5190 5187 5185 5182 5180 5177 5174 5172 5169 5167 5164 5161 5158 5156 5153 5150 5148 5147 5147 5147 5148 5149 5150 5151 5151 5152 5153 5153 5154 5154 5154 5155 5156 5157 5158 5160 5161 5163 5165 5167 5170 5173 5176 5179 5182 5185 5189 5194 5198 5202 5206 5211 5216 5221 5225 5230 5235 5239 5244 5248 5252 5256
5210 5209 5208 5207 5206 5204 5202 5200 5198 5196 5194 5191 5189 5186 5184 5182 5179 5177 5174 5172 5169 5167 5164 5162 5159 5157 5154 5152 5149 5148 5147 5146 5147 5148 5149 5150 5150 5151 5152 5153 5153 5154 5155 5155 5156 5157 5158 5159 5161 5162 5164 5166 5168 5171 5174 5176 5179 5183 5186 5190 5194 5198 5202 5207 5211 5216 5220 5225 5229 5233 5238 5242 5247 5251
5208 5208 5207 5206 5204 5203 5200 5198 5197 5195 5193 5190 5188 5186 5183 5181 5179 5176 5174 5171 5169 5167 5164 5162 5160 5158 5155 5153 5151 5149 5147 5146 5146 5146 5147 5148 5149 5150 5151 5152 5153 5153 5154 5155 5156 5156 5157 5158 5160 5161 5163 5165 5167 5169 5171 5174 5177 5180 5183 5187 5190 5194 5198 5202 5206 5211 5215 5219 5224 5228 5232 5236 5240 5244
5207 5206 5205 5204 5203 5201 5199 5197 5195 5193 5191 5189 5187 5184 5182 5180 5177 5175 5173 5171 5168 5166 5164 5162 5160 5158 5156 5154 5152 5150 5148 5146 5145 5145 5145 5146 5147 5148 5149 5150 5151 5152 5153 5154 5155 5156 5157 5158 5159 5160 5162 5163 5165 5167 5169 5171 5174 5177 5180 5183 5187 5190 5193 5197 5201 5206 5210 5214 5218 5222 5226 5230 5234 5238
Wind_Speed
59 61 63 65 66 68 70 72 73 74 74 76 77 77 79 79 77 72 62 51 46 44 40 35 33 35 37 35 32 30 28 28 28 31 41 52 61 67 73 78 81 82 81 80 82 86 92 101 108 113 120 126 129 132 131 131 131 131 128 117 111 112 101 92 87 84 89 86 91 110 105 88 91 93
58 60 62 64 66 68 70 71 72 73 74 75 76 77 77 77 75 72 64 52 45 42 37 35 35 35 36 36 33 31 29 28 28 30 37 48 59 66 71 77 81 82 82 81 81 85 91 98 106 111 118 125 129 131 131 131 132 134 133 121 111 114 109 97 89 84 83 78 80 101 110 98 91 86
57 59 62 64 66 68 69 70 71 72 73 74 75 75 75 75 73 69 64 54 45 42 38 36 38 37 35 34 33 29 29 28 27 29 34 44 56 64 69 75 80 82 82 82 81 84 89 96 104 110 116 124 128 130 131 132 133 135 136 126 113 112 112 103 96 91 84 78 78 91 104 105 97 88
56 58 61 63 65 67 68 69 70 71 72 73 73 74 73 72 70 66 62 55 45 40 38 36 35 34 31 29 29 26 26 28 27 28 31 40 52 62 68 73 79 82 82 82 81 83 87 93 101 108 114 122 127 130 132 132 134 136 137 131 116 110 111 106 102 98 88 79 81 88 97 104 105 99
56 58 61 63 65 67 67 68 70 70 71 72 72 73 72 70 68 64 59 55 44 34 32 32 30 29 27 26 27 26 25 26 27 27 30 37 47 59 67 72 78 82 83 83 82 83 86 91 99 106 112 120 126 130 132 133 135 136 137 135 122 110 108 106 103 102 91 82 82 87 93 99 102 104
56 58 61 63 65 66 67 68 69 69 70 71 71 72 71 68 65 61 57 52 43 30 25 27 27 27 27 25 25 26 24 24 26 27 29 34 43 55 65 70 76 82 84 85 84 84 86 90 96 104 111 118 125 130 132 134 136 136 136 138 130 116 108 104 103 102 93 86 81 83 91 97 97 100
55 58 61 64 65 65 67 67 68 68 68 69 70 70 69 67 62 58 54 49 40 29 23 24 26 26 26 25 25 25 25 25 25 26 28 32 40 51 62 68 74 81 85 86 85 85 86 89 95 101 109 116 122 129 132 134 136 136 135 138 136 126 113 104 104 103 95 90 84 80 89 97 95 95
56 59 62 64 65 65 67 67 67 67 67 68 69 69 68 65 59 54 51 46 37 29 23 23 26 26 24 24 24 24 23 24 26 26 27 30 37 47 59 67 72 79 85 87 87 86 86 88 93 99 106 113 120 127 132 134 135 136 134 135 136 132 122 108 104 104 97 92 88 83 87 95 97 95
57 60 63 64 65 65 66 66 66 66 67 67 68 68 66 63 57 51 48 42 34 29 25 23 24 25 24 22 24 26 24 22 23 25 25 28 34 43 54 65 71 76 83 88 88 88 88 88 92 97 104 111 118 125 131 134 135 135 133 133 134 134 128 115 105 102 97 92 89 86 88 93 96 97
58 61 63 64 65 65 64 65 65 65 66 65 66 66 65 62 55 49 44 38 31 27 26 25 24 24 23 21 23 28 27 23 21 20 22 24 30 38 49 61 69 75 81 87 89 89 89 89 91 96 102 109 115 122 129 134 135 134 133 132 131 132 131 123 110 101 97 93 89 87 90 93 95 95
59 62 64 64 63 64 64 64 64 65 65 64 64 65 64 60 53 46 41 35 29 25 26 27 25 23 23 22 25 29 28 25 22 19 18 20 25 34 43 55 66 74 80 86 90 91 90 90 91 95 100 106 113 119 126 133 134 133 131 130 130 130 131 129 117 103 98 97 91 85 85 91 94 93
59 62 63 63 62 62 63 62 63 64 64 62 62 62 62 58 50 44 38 33 27 25 26 27 24 23 25 25 28 32 30 25 23 22 19 18 22 30 39 49 61 71 78 84 90 92 92 91 91 94 98 104 110 116 123 131 134 130 129 129 128 128 130 131 123 109 99 98 96 88 81 84 91 92
59 61 62 61 61 61 61 61 62 63 63 62 61 60 60 57 49 42 37 30 25 24 26 26 22 23 29 29 30 34 34 29 25 23 21 19 21 25 34 45 56 67 75 82 89 93 93 93 92 94 97 101 108 114 120 129 132 128 126 126 126 125 127 130 128 117 103 98 99 95 85 82 88 92
59 60 60 60 59 60 60 60 61 62 63 62 60 60 59 55 48 42 35 28 23 22 25 26 23 24 31 34 33 35 38 36 32 27 23 19 19 22 28 39 52 64 73 79 86 92 94 94 93 94 97 100 106 112 117 125 130 127 123 124 124 124 125 127 129 124 111 100 99 99 92 85 85 91
58 59 59 58 58 58 58 58 59 61 62 61 60 59 59 55 48 42 35 27 21 21 24 26 26 28 33 36 36 36 37 40 40 35 28 21 17 18 22 31 45 59 70 77 83 90 94 95 94 94 96 98 103 109 114 121 127 126 121 121 122 123 125 125 127 128 120 107 100 99 97 89 84 88
58 58 57 57 57 57 56 56 58 59 60 60 59 58 58 54 48 42 36 27 20 20 23 25 26 30 34 34 35 35 35 38 41 38 33 26 20 17 19 26 37 51 65 74 80 86 93 96 95 93 94 97 101 106 111 117 124 124 119 119 120 122 124 123 123 128 127 117 106 100 99 95 88 86
57 57 56 56 55 55 54 55 56 57 58 58 58 57 57 53 47 42 36 27 20 20 23 23 23 29 33 31 31 32 34 37 39 37 33 30 25 20 19 23 31 44 58 69 76 83 90 96 96 93 93 95 99 104 109 114 121 121 117 117 119 120 122 121 120 124 128 124 114 104 99 97 94 89
56 55 54 54 54 53 53 53 54 55 56 56 56 57 57 53 47 41 35 27 20 21 24 21 19 26 32 30 29 31 34 36 36 33 30 29 27 24 22 24 30 40 52 65 73 79 87 94 96 94 92 94 97 101 106 111 118 120 116 115 117 118 119 119 118 121 127 126 118 108 99 95 95 93
55 54 53 52 51 51 51 52 53 53 54 54 54 55 56 52 47 41 35 27 19 20 24 19 14 22 30 29 28 31 33 33 33 32 30 28 26 24 23 25 30 38 48 60 69 75 83 91 94 94 92 93 95 99 103 107 114 117 115 112 115 117 117 118 117 118 124 127 120 110 98 90 90 92
54 52 51 50 49 49 49 51 52 52 52 52 52 53 54 51 46 40 35 27 18 17 21 17 14 23 30 29 29 32 33 32 34 36 35 31 26 22 22 22 27 35 44 55 64 71 79 87 91 93 93 93 94 96 100 103 109 114 114 110 112 115 115 116 116 116 121 125 123 114 98 86 86 88
52 51 49 47 46 47 48 49 50 50 50 50 50 52 52 50 45 39 34 27 18 16 18 17 17 25 31 29 30 33 34 35 38 39 37 34 27 21 18 18 23 29 38 48 58 66 75 83 88 92 94 93 92 94 97 100 104 110 113 110 109 112 115 115 116 116 119 122 124 119 105 89 87 90
50 49 46 44 44 44 46 48 49 49 48 48 48 49 51 49 44 39 33 27 19 16 18 19 21 26 30 30 31 34 35 38 40 40 38 34 28 20 15 14 17 23 30 41 52 61 72 80 84 90 94 93 91 92 94 97 100 104 110 110 107 109 113 115 115 116 118 120 121 123 116 99 89 92
48 45 43 42 42 42 45 47 48 48 47 47 46 46 48 48 44 39 33 25 19 17 19 20 22 26 28 30 31 32 35 38 39 39 36 31 27 23 17 11 12 18 25 34 45 57 69 76 80 87 92 91 89 89 90 93 96 99 104 108 106 106 110 114 115 115 117 119 120 123 124 112 96 91
45 42 40 40 40 41 44 46 47 47 46 46 45 44 46 47 44 39 33 25 17 15 16 18 19 23 26 28 30 30 33 37 38 37 34 28 25 25 19 11 8 14 22 30 41 54 63 70 75 82 88 90 88 88 88 90 93 95 100 104 104 104 107 111 114 114 115 119 122 122 122 121 111 97
41 38 37 37 38 40 43 44 45 46 46 45 44 44 45 46 43 38 32 26 17 13 13 15 16 20 23 26 29 30 31 35 37 35 31 26 24 25 19 10 3 8 17 26 36 47 55 63 71 77 84 89 89 87 86 88 90 92 95 99 101 102 104 108 113 113 114 118 123 121 118 119 119 109
37 35 35 35 36 39 41 43 44 44 45 45 45 44 44 45 43 38 32 26 18 13 13 13 14 17 20 24 28 31 30 32 35 32 27 23 24 27 24 16 6 4 12 21 31 40 49 58 66 73 80 86 88 87 85 86 88 89 91 95 98 100 101 105 110 112 113 117 122 121 117 115 117 115
33 33 33 33 35 38 40 42 42 43 44 45 45 44 44 44 43 39 32 26 19 14 13 12 12 14 17 21 26 29 28 28 31 29 23 19 21 25 27 23 15 6 8 17 27 36 45 54 62 70 77 84 87 87 85 84 85 87 89 91 94 97 99 102 107 110 112 117 121 120 118 116 115 113
31 31 31 31 33 36 39 40 41 42 43 43 43 42 43 43 43 40 33 27 21 14 12 12 11 12 14 17 22 26 26 25 28 28 22 17 19 20 21 22 20 14 8 13 22 33 43 51 59 67 74 81 85 85 83 82 83 84 86 88 90 94 97 99 103 108 111 116 121 120 118 118 117 114
29 29 29 30 32 35 37 39 40 41 42 42 41 40 40 42 42 40 34 28 23 15 12 12 10 10 11 15 18 22 23 23 25 27 22 16 17 17 15 15 18 17 13 12 17 26 38 48 56 64 71 77 81 82 81 80 80 81 82 84 86 89 93 95 99 104 108 114 120 121 117 116 119 117
28 27 27 28 31 34 36 37 39 40 40 39 38 37 37 39 40 41 37 30 25 18 12 11 9 8 9 12 15 18 21 22 23 24 21 17 14 14 13 13 15 17 15 13 13 17 29 42 53 61 68 73 76 78 78 77 77 78 79 81 82 85 89 92 95 99 104 110 116 120 119 116 118 121
26 25 25 27 30 33 34 36 37 38 37 37 36 36 36 37 38 39 37 32 26 20 14 10 9 7 7 9 12 16 18 20 21 22 22 19 14 11 10 12 15 16 14 12 11 13 22 35 48 57 64 69 72 74 75 75 75 76 77 78 80 81 84 87 91 94 98 104 112 118 119 117 118 121
24 23 24 26 29 31 32 34 35 35 35 35 36 36 36 36 36 37 37 33 27 22 16 11 9 7 6 6 10 13 16 18 19 19 20 19 17 12 9 13 16 15 13 11 11 13 18 27 38 50 57 63 67 69 71 73 74 75 75 76 77 79 80 83 86 90 93 98 105 113 117 117 116 119
23 22 23 24 27 29 31 32 33 33 33 34 36 36 35 35 35 36 37 35 30 25 19 13 9 8 6 4 6 10 12 15 17 18 17 17 17 15 10 14 18 17 14 13 14 16 19 22 29 39 49 57 62 64 67 69 71 72 73 73 74 75 77 79 82 86 90 94 99 106 113 115 115 116
22 21 22 24 26 28 29 31 32 32 33 34 35 35 35 34 35 35 36 36 33 27 22 16 11 9 7 4 3 6 8 11 14 16 15 14 14 16 13 10 18 20 17 15 16 18 20 22 25 30 39 49 55 58 62 66 67 68 69 70 71 71 72 74 77 80 85 89 93 98 106 112 114 114
21 20 21 23 25 27 27 30 31 32 32 33 34 34 33 33 33 34 34 35 34 30 24 19 14 10 9 7 3 2 4 7 10 11 12 12 11 13 13 8 14 21 20 19 19 20 20 24 26 28 32 40 47 52 58 62 63 64 65 66 67 68 69 70 72 74 78 82 87 91 98 105 111 113
20 19 20 22 24 25 26 29 31 31 31 32 33 33 33 32 31 32 33 33 34 32 27 22 17 12 9 9 6 3 1 3 6 7 8 10 10 9 10 9 8 18 23 22 21 20 20 23 25 26 27 32 41 49 54 57 59 61 62 63 64 64 65 66 68 69 71 75 79 84 89 95 103 109
20 18 19 22 23 24 25 27 30 30 30 31 32 32 32 31 30 30 31 31 32 32 30 25 20 15 10 9 10 6 3 1 2 4 5 7 8 6 6 8 6 11 20 22 21 21 22 22 22 23 25 30 38 46 50 52 56 58 59 60 61 61 62 63 64 66 67 69 72 76 80 84 91 99
19 18 19 21 22 23 24 26 29 29 29 29 30 31 31 30 29 28 29 30 30 30 30 28 23 18 13 9 10 11 7 4 2 1 2 2 4 4 4 5 6 5 12 18 20 21 22 22 20 21 25 30 36 42 46 49 52 54 56 57 58 59 59 60 61 62 64 65 67 69 72 76 81 87
18 17 18 20 22 22 23 25 27 28 28 28 28 29 29 29 28 27 27 28 29 29 29 29 26 22 17 11 7 11 11 8 5 4 2 1 2 3 3 2 3 4 6 12 16 18 18 19 19 21 25 30 34 39 44 46 48 51 54 55 56 57 57 57 58 59 59 60 62 64 66 70 73 78
18 17 18 20 21 21 22 24 26 27 28 27 27 27 28 28 27 26 25 26 27 27 27 28 27 24 20 16 9 7 12 12 9 7 6 4 4 4 3 2 1 1 3 8 13 16 16 16 17 20 24 29 33 37 41 44 47 49 51 53 55 55 55 56 56 56 56 57 58 59 61 64 68 72
17 17 17 19 20 20 21 23 25 26 27 27 26 26 27 27 27 26 25 24 25 25 26 26 26 26 23 19 14 6 8 14 13 11 9 8 7 7 6 5 4 3 3 5 9 14 16 17 17 19 23 27 31 34 38 42 46 48 50 51 53 54 55 55 55 54 55 55 55 56 58 59 62 65
17 17 17 18 19 20 21 22 24 25 26 26 26 25 25 26 26 25 24 23 23 23 24 24 24 25 24 21 18 12 5 10 15 15 12 11 10 10 9 8 7 6 5 5 6 10 14 16 18 19 21 25 28 32 35 38 42 46 49 51 52 54 55 55 55 54 54 54 54 55 56 57 58 59
17 17 17 18 19 19 20 22 23 24 25 26 26 25 25 25 25 25 24 22 21 21 21 22 22 23 23 22 20 16 10 4 11 16 16 14 13 13 13 12 11 10 8 7 7 8 12 15 17 18 19 22 26 29 32 34 37 42 46 50 52 53 54 55 55 55 54 54 54 54 54 55 56 57
16 16 16 17 18 19 20 21 22 23 25 26 25 25 25 24 24 24 23 22 21 20 20 20 20 20 21 21 20 18 15 10 5 11 17 18 16 16 16 16 15 13 13 11 10 9 11 15 18 18 18 20 23 26 29 32 34 37 41 45 49 52 54 55 55 56 56 55 55 54 54 54 55 56
16 16 16 17 18 19 20 21 22 23 24 25 25 25 25 24 24 23 23 22 21 19 19 18 18 18 19 19 19 18 17 15 10 5 11 17 19 19 18 18 18 17 16 16 14 13 12 14 17 19 19 19 21 23 26 29 32 34 37 40 44 47 50 53 55 56 56 56 56 56 55 55 55 54
Wind_Direction
321 323 324 325 327 327 327 328 329 329 329 329 330 332 334 334 334 335 335 331 324 321 320 316 314 312 310 309 305 297 285 267 252 239 228 221 217 216 216 214 212 212 211 212 213 211 210 209 208 208 207 205 205 206 207 207 207 207 206 205 201 196 194 192 192 194 195 197 201 205 205 197 198 203
322 324 325 326 327 327 328 329 329 329 329 330 332 333 334 334 334 334 335 334 327 322 322 318 315 313 309 307 304 299 291 276 257 243 231 223 218 216 216 214 212 212 211 212 213 211 210 210 209 208 207 206 205 206 207 207 207 207 207 206 203 199 196 193 193 196 195 195 198 204 207 203 198 198
323 325 326 326 327 328 328 329 329 329 330 331 333 334 335 335 335 334 334 336 332 325 325 323 318 316 313 307 303 299 293 284 265 248 235 225 220 217 216 215 213 212 211 211 212 212 211 210 209 208 207 206 205 206 207 207 207 208 207 207 205 202 199 195 194 199 199 197 198 201 206 207 203 200
324 325 326 327 328 328 329 329 329 330 331 332 334 334 335 335 335 334 333 335 336 331 328 327 324 323 324 317 309 303 294 286 273 254 239 228 222 218 216 215 213 212 211 211 212 212 211 210 209 209 208 207 206 206 207 208 208 209 209 207 205 204 203 198 196 200 201 200 199 199 202 206 207 206
325 326 327 328 328 329 329 329 330 330 332 333 334 335 336 336 335 334 334 334 338 338 331 329 332 334 335 330 323 315 303 291 278 261 244 231 224 219 216 215 214 212 211 211 211 212 212 210 209 209 208 207 207 206 207 208 209 209 210 208 206 205 205 202 198 198 202 201 197 197 201 203 205 208
327 328 329 329 329 329 329 329 330 331 332 334 334 335 337 337 335 333 334 335 338 344 337 330 335 338 337 334 326 318 311 299 284 267 250 234 225 221 218 216 214 213 211 211 211 211 212 211 210 209 208 207 207 206 207 208 209 210 210 209 208 206 205 204 199 196 200 202 196 194 200 204 205 207
328 329 330 330 329 328 329 329 330 331 333 334 335 336 337 338 336 333 334 335 338 344 342 332 333 335 333 330 324 317 312 304 291 273 255 238 226 221 219 217 215 213 212 211 210 210 211 211 210 209 208 207 207 207 207 208 210 211 211 211 210 208 206 204 200 197 199 201 199 195 198 203 206 207
328 329 330 330 329 328 329 329 330 331 334 335 335 337 338 338 336 334 334 335 336 341 342 335 332 333 333 333 330 324 318 309 298 283 263 243 229 222 219 218 216 214 212 211 211 210 211 211 211 210 209 208 207 207 207 208 210 211 211 211 211 210 207 204 201 201 201 200 201 199 197 199 203 206
326 328 329 329 329 328 329 329 329 331 334 336 336 337 339 338 336 334 334 334 334 337 340 336 335 335 337 342 340 337 334 323 309 296 277 253 234 225 220 218 217 215 213 212 211 210 210 211 211 210 209 208 207 207 207 208 210 212 212 212 212 212 209 205 203 202 202 200 201 203 201 199 200 203
325 326 327 328 328 328 328 328 329 332 334 336 337 338 339 339 337 335 335 332 331 334 336 335 336 335 337 344 346 345 344 334 318 305 290 267 242 228 222 220 218 216 214 212 211 210 210 210 211 211 209 208 207 207 208 208 210 212 212 212 213 213 210 207 204 202 202 202 201 202 203 203 202 201
323 324 325 327 328 328 327 328 330 332 335 337 337 338 340 339 337 336 333 329 327 330 331 332 334 334 336 346 352 353 352 343 325 312 299 279 254 234 223 220 219 217 215 213 212 211 210 210 210 211 210 209 208 207 208 208 210 212 213 212 213 213 211 209 205 202 202 203 201 198 200 203 205 203
321 323 324 326 327 327 327 328 330 332 335 337 338 339 340 339 337 336 333 328 323 323 327 329 333 337 341 349 356 356 357 354 338 323 312 293 267 243 227 221 219 218 217 215 213 211 210 210 210 210 210 209 208 207 207 208 210 212 213 213 213 213 212 211 207 203 202 204 203 199 198 200 201 202
321 322 323 326 327 327 326 328 330 333 334 336 338 339 340 339 338 336 333 327 319 319 325 327 333 345 348 350 354 354 353 355 349 336 325 308 284 258 235 224 220 218 217 216 214 212 210 210 210 210 210 209 208 208 207 208 211 213 213 213 213 213 213 212 209 205 203 204 205 204 202 199 198 201
319 321 323 325 326 326 326 328 331 333 335 336 338 340 340 339 338 337 334 326 319 320 323 324 332 350 352 348 349 349 348 348 347 341 332 318 298 275 250 232 223 219 218 216 214 213 211 210 210 210 210 210 209 208 207 208 211 213 213 213 212 212 212 212 210 207 205 205 207 208 206 201 198 201
318 320 322 325 326 325 326 329 332 334 335 336 339 341 341 339 339 338 334 328 321 318 318 321 334 351 353 346 343 343 342 341 340 336 330 320 303 284 263 243 229 221 218 217 215 214 212 211 209 209 209 210 209 208 207 208 211 213 213 212 212 212 212 212 211 209 207 207 209 211 210 205 199 199
317 320 322 324 325 324 326 329 333 334 335 337 339 341 341 340 339 339 335 329 323 319 316 318 333 351 352 343 336 336 334 332 332 330 324 317 307 289 269 252 238 225 219 217 215 214 213 211 209 209 209 210 209 208 208 208 211 214 213 212 212 212 211 212 211 210 209 209 211 213 212 209 204 200
317 319 322 324 323 323 326 330 334 335 335 337 339 341 342 341 340 339 336 330 323 320 320 317 329 349 352 340 332 330 327 325 327 327 322 316 310 296 272 255 245 232 221 217 215 214 214 212 209 208 209 209 209 208 208 208 210 213 214 212 212 212 211 212 211 210 210 211 212 214 214 212 210 206
315 318 321 323 322 323 327 331 334 335 336 338 340 341 342 342 341 340 337 333 324 321 327 326 330 347 350 341 331 326 322 321 323 325 322 317 311 299 276 253 245 236 224 217 214 213 214 212 209 207 208 209 209 208 208 208 209 213 214 212 212 212 211 211 211 210 210 211 211 213 214 214 214 212
314 317 321 322 321 323 328 332 335 336 337 339 340 342 343 342 342 340 337 335 327 324 331 332 335 349 349 339 328 323 321 323 327 331 331 324 314 301 282 257 244 237 227 219 214 212 214 213 209 207 207 209 209 208 208 208 209 212 214 213 212 212 211 211 211 210 209 210 210 211 212 214 216 216
313 317 320 320 320 323 329 332 335 336 338 339 341 342 343 343 343 341 337 335 329 325 331 334 343 353 349 338 330 327 329 334 340 342 339 332 322 305 284 262 246 239 231 221 214 211 214 214 210 207 207 208 208 208 208 208 208 211 214 214 212 211 211 211 210 210 209 209 210 210 209 209 212 216
313 317 319 319 320 324 330 333 335 337 338 340 342 343 344 344 344 342 337 333 328 327 332 340 354 354 347 341 338 336 339 346 347 346 343 338 330 314 288 263 244 238 232 223 214 210 213 213 209 207 207 207 207 208 208 208 208 210 213 215 213 211 211 211 210 210 209 209 210 210 208 205 207 210
313 317 318 318 320 326 331 333 335 337 339 342 344 344 345 345 345 343 339 330 322 325 334 345 357 353 344 344 345 342 344 349 349 347 347 343 337 329 306 268 240 230 228 222 214 210 211 212 209 207 207 207 206 207 208 208 208 209 211 214 214 212 211 211 210 210 210 209 209 210 208 206 206 206
313 316 317 318 321 327 331 333 335 338 340 342 345 346 346 347 346 344 341 331 318 319 331 343 353 350 344 346 349 346 346 349 350 350 349 346 347 347 331 292 242 220 216 215 211 209 210 210 208 206 206 205 206 207 207 208 208 209 210 213 215 213 211 211 211 210 210 209 209 210 209 208 208 206
313 315 316 317 322 328 331 333 335 338 340 343 345 347 348 349 347 345 342 335 317 308 319 334 347 350 345 346 352 352 350 350 352 353 349 349 358 358 344 317 260 217 205 205 207 208 208 207 206 206 205 204 204 206 206 207 208 209 209 211 214 214 212 211 211 210 209 209 210 211 211 209 209 208
312 314 315 318 324 329 331 333 335 338 340 343 346 349 351 351 349 347 343 337 320 300 307 325 342 350 347 347 354 359 356 352 354 356 352 355 8 9 0 351 310 210 195 197 202 204 204 203 203 204 203 203 203 204 205 206 207 208 209 210 212 214 212 211 212 211 209 209 210 212 212 210 210 210
312 314 315 320 326 330 331 333 336 338 340 343 347 350 352 352 351 349 346 339 324 299 298 317 338 348 349 350 356 2 1 355 355 359 358 4 18 17 13 17 32 159 179 186 193 196 199 199 200 201 201 201 203 204 204 205 206 207 208 209 211 213 213 212 212 212 210 209 211 212 212 210 209 210
312 314 316 321 327 329 331 334 336 338 342 346 349 351 351 353 353 351 348 344 331 304 291 308 331 344 350 354 358 3 4 359 359 2 3 13 28 23 15 21 36 67 152 175 184 188 192 195 196 197 199 201 202 203 203 205 206 206 208 209 209 212 213 212 212 212 211 210 211 212 212 211 209 209
313 314 317 322 327 329 332 335 337 339 344 349 351 351 350 352 354 354 351 347 338 314 288 295 319 338 350 358 1 3 5 3 4 8 9 21 43 37 18 21 35 50 97 155 176 182 186 189 192 193 196 199 201 202 203 204 205 206 208 209 210 211 213 213 212 212 211 211 212 213 212 212 210 208
312 315 318 323 327 329 332 336 337 341 348 351 352 351 350 351 354 355 354 351 345 327 293 287 309 331 349 2 5 5 6 7 10 12 11 19 44 46 28 28 43 52 73 118 157 175 182 185 188 190 193 197 200 202 202 203 205 206 207 209 210 211 212 214 213 213 212 211 213 214 213 212 212 209
313 315 319 324 328 330 333 336 339 344 350 351 350 350 350 351 355 357 357 354 350 339 309 286 298 321 343 1 8 9 9 9 12 15 13 11 28 42 41 47 57 61 70 96 127 157 176 183 185 188 192 195 198 201 202 202 204 206 207 208 209 210 212 213 214 214 213 212 213 215 215 213 212 211
315 316 319 324 328 330 334 337 342 347 350 349 348 350 351 353 356 359 359 357 352 345 327 295 286 305 331 354 8 13 12 11 13 17 17 14 17 34 53 67 73 73 77 93 116 143 166 178 184 186 190 194 196 199 202 202 203 205 206 207 209 210 211 213 214 215 215 213 213 215 217 215 213 212
316 315 319 324 327 330 335 339 343 348 349 348 348 351 352 354 357 359 1 360 356 351 340 311 284 288 313 345 6 13 13 13 15 18 21 21 20 29 65 95 97 92 92 97 114 142 158 170 180 186 189 193 195 198 201 203 204 205 206 207 209 210 211 212 214 215 216 215 214 215 217 218 216 214
316 315 319 324 327 330 336 340 344 347 348 348 350 351 353 354 356 359 2 3 0 356 349 331 295 277 286 323 2 13 15 16 17 18 21 24 26 31 63 112 117 113 115 116 123 143 155 162 174 185 189 192 194 197 200 203 204 205 206 207 209 211 212 213 214 215 216 217 216 215 217 218 218 216
316 315 318 323 327 331 336 341 344 347 349 350 351 352 354 355 356 359 3 4 3 0 354 343 317 281 269 282 341 14 21 21 20 19 19 24 30 34 47 108 134 131 130 136 139 145 156 166 174 183 188 191 194 197 200 202 204 206 207 208 209 211 213 214 216 217 218 219 219 218 217 218 220 219
314 314 317 322 327 331 337 342 345 347 350 351 352 353 354 355 356 358 1 4 5 4 359 352 336 302 269 260 280 353 21 25 23 21 21 28 36 37 40 78 145 148 143 148 155 156 161 171 177 180 184 190 195 198 200 202 204 205 207 208 209 211 213 214 216 218 219 220 221 220 219 219 220 220
313 312 315 321 326 331 338 343 346 348 350 352 352 353 354 355 356 358 0 4 5 5 3 359 350 329 287 258 253 273 334 22 25 22 25 31 36 40 41 54 133 160 157 155 162 167 169 174 179 181 184 191 197 199 201 202 204 206 207 208 209 210 212 214 216 218 219 220 221 222 222 221 221 221
311 310 314 320 326 331 339 344 346 348 351 353 353 353 354 355 355 357 359 2 4 5 6 4 359 348 319 270 247 244 250 271 25 27 32 35 37 44 53 52 82 159 170 169 169 173 177 182 186 186 188 193 198 199 201 203 204 206 207 208 208 210 211 213 215 217 219 220 222 223 223 224 223 222
308 308 312 319 326 332 339 344 346 348 351 353 353 353 353 353 354 355 357 360 3 6 7 6 3 359 347 307 254 238 235 233 229 21 42 50 49 51 57 58 67 123 174 183 183 183 186 191 193 190 189 193 198 200 201 203 205 206 207 208 209 209 210 212 214 216 218 220 221 223 224 225 225 225
307 308 311 318 326 333 339 344 346 348 351 352 352 352 352 351 352 353 355 358 1 4 7 8 7 5 0 346 287 241 233 231 226 223 222 196 138 101 77 66 76 103 155 182 192 195 194 195 197 194 191 191 195 199 202 204 206 207 208 209 209 210 210 211 213 214 217 218 220 222 223 225 226 227
307 307 310 318 326 333 338 342 345 347 350 351 351 351 351 350 350 351 354 356 359 2 5 8 9 8 6 2 344 262 234 230 229 227 228 229 206 175 151 131 136 153 159 176 192 200 198 194 195 198 196 193 193 196 200 203 206 208 209 210 210 211 211 212 212 213 214 216 218 220 222 224 226 227
308 307 309 316 325 332 338 341 344 347 349 350 350 349 349 349 349 349 352 355 358 0 3 6 9 10 9 8 4 337 244 230 230 230 231 233 228 211 191 176 177 203 210 192 193 200 203 201 200 200 200 198 196 197 199 202 205 208 210 211 212 212 213 213 213 213 213 214 216 217 219 222 224 227
308 306 307 315 324 331 337 340 342 345 348 349 348 347 347 347 347 347 349 352 355 358 1 4 7 9 11 11 9 3 318 238 230 230 233 235 233 227 215 201 192 195 211 218 206 200 202 204 205 203 200 199 200 201 201 203 204 207 209 210 212 213 214 214 214 214 214 214 214 215 217 219 221 224
305 304 306 313 323 330 336 339 341 344 347 348 346 345 344 344 345 345 346 348 351 354 358 2 4 6 9 11 11 9 2 300 237 231 232 235 235 233 228 219 208 201 204 215 221 212 204 201 200 200 199 199 200 201 203 205 206 207 208 209 211 212 214 215 215 215 215 215 215 215 216 217 218 220
303 301 304 312 322 330 336 338 339 342 345 346 345 344 342 342 342 342 343 344 346 350 353 358 1 4 6 9 11 11 9 0 296 240 234 234 236 236 233 229 224 217 211 211 217 220 215 205 198 197 200 204 204 203 204 206 208 209 210 210 211 212 213 214 215 216 216 216 217 217 217 218 218 219
301 300 303 312 321 329 334 336 337 339 343 344 344 342 341 339 338 339 340 341 342 345 348 352 356 360 3 5 9 11 11 9 0 304 244 236 235 236 236 234 232 229 224 220 219 220 221 216 208 202 202 206 208 207 206 207 208 209 210 211 212 212 213 214 214 215 216 216 217 218 219 220 220 221